Location: Caltech
(34.1382°N, 118.1253°W)
Time: 23:54:45
(UTC-07:00)

Aureole 2 Rocket - Visible Passes

Search period start: 29 June 2016 00:00
Search period end: 09 July 2016 00:00
Orbit: 335 x 612 km, 73.9° (Epoch: 29 June)

Date Brightness Start Highest point End Pass type
(mag) Time Alt. Az. Time Alt. Az. Time Alt. Az.
29 Jun 5.8 00:14:23 10° N 00:14:31 11° N 00:14:31 11° N visible
29 Jun 5.6 23:46:01 10° N 23:46:15 11° NNE 23:46:15 11° NNE visible
30 Jun 5.5 23:17:53 10° NNE 23:17:58 10° NNE 23:17:58 10° NNE visible
02 Jul 5.5 23:54:58 10° NNW 23:55:35 15° NNW 23:55:35 15° NNW visible
03 Jul 5.0 23:26:10 10° NNW 23:27:20 20° N 23:27:20 20° N visible
04 Jul 4.5 22:57:29 10° N 22:59:06 24° NNE 22:59:06 24° NNE visible
05 Jul 4.4 22:29:00 10° N 22:30:53 22° NE 22:30:53 22° NE visible
06 Jul 4.6 22:00:45 10° NNE 22:02:40 16° ENE 22:02:40 16° ENE visible
06 Jul 5.3 23:35:50 10° NW 23:36:47 15° WNW 23:36:47 15° WNW visible
07 Jul 5.0 21:33:20 10° NE 21:34:11 11° ENE 21:34:28 11° ENE visible
07 Jul 4.5 23:06:35 10° NW 23:08:35 27° WNW 23:08:35 27° WNW visible
08 Jul 3.3 22:37:30 10° NNW 22:40:24 53° NW 22:40:24 53° NW visible
